Regional Weather Roundup
Issued by NWS

Home | Current Version | Previous Version | Text Only | Print | Product List | Glossary On
Versions: 1 2 3 4 5 6 7 8 9 10 11 12 13 14 15 16 17 18 19 20 21 22 23 24 25 26 27 28 29 30 31 32 33 34 35 36 37 38 39 40 41 42 43 44 45 46 47 48 49 50
000
ASUS43 KMPX 171710
RWRMN
WEATHER ROUNDUP FOR MINNESOTA
NATIONAL WEATHER SERVICE TWIN CITIES/CHANHASSEN MN
1200 PM CDT WED SEP 17 2014


NOTE: "FAIR" INDICATES FEW OR NO CLOUDS BELOW 12,000 FEET WITH NO
SIGNIFICANT WEATHER AND/OR OBSTRUCTIONS TO VISIBILITY. N/A MEANS
CURRENT SKY AND/OR WEATHER CONDITIONS ARE NOT AVAILABLE.

MNZ060>063-068>070-171800-
   Twin Cities Metro

CITY           SKY/WX    TMP DP  RH WIND       PRES   REMARKS
TWIN CITIES    MOSUNNY   68  50  52 CALM      29.95F
ST PAUL        SUNNY     67  52  58 CALM      29.96S
CRYSTAL        PTSUNNY   69  51  52 E3        29.94S
BLAINE         MOSUNNY   70  54  56 CALM      29.95S
LAKEVILLE      SUNNY     66  54  63 CALM      29.96S
SOUTH ST PAUL  SUNNY     68  52  55 SW5       29.95S
LAKE ELMO      FAIR      66  54  63 CALM      29.97S
$$
MNZ001>005-007-008-013>017-022>024-027-028-171800-
   Northwest Minnesota

CITY           SKY/WX    TMP DP  RH WIND       PRES   REMARKS
BEMIDJI        SUNNY     64  47  53 CALM      29.96S
HALLOCK        CLOUDY    55  46  71 NE10      30.03S
ROSEAU         CLOUDY    54  45  71 E15       30.04R
WARROAD        CLOUDY    48  45  87 NE14G20   30.06R
THIEF RVR FALL MOSUNNY   59  50  72 NE12      29.99R
CROOKSTON      SUNNY     63  48  59 NE7       29.99R
FOSSTON        SUNNY     66  48  52 N8        29.97R
DETROIT LAKES  SUNNY     66  50  55 N3        29.97S
MOORHEAD       SUNNY     68  52  56 NE5       29.97R
PARK RAPIDS    SUNNY     67  46  47 VRB3      29.96R
MAHNOMEN       FAIR      66  48  52 N6        29.96R
$$
MNZ006-009>011-018-025>026-171800-
   North Central Minnesota

CITY           SKY/WX    TMP DP  RH WIND       PRES   REMARKS
BAUDETTE       PTSUNNY   53  43  68 NE9G18    30.03R
FLAG ISLAND    CLOUDY    45  39  81 NE10G16   30.06R
INTL FALLS     MOSUNNY   52  43  71 NE13      30.02R
WASKISH        CLOUDY    55  48  76 N5        30.00R
BIG FORK       MOSUNNY   59  50  72 N9        29.98R
LONGVILLE      SUNNY     66  52  59 CALM      29.95S
GRAND RAPIDS   SUNNY     64  46  52 N6        29.96R
CRANE LAKE     PTSUNNY   52  45  76 N5        30.01R
ORR            PTSUNNY   55  45  67 CALM      29.96S
COOK           CLOUDY    55  46  71 N6        29.98R
WALKER         FAIR      63  50  63 SE5       29.95S
$$
MNZ012-019>021-037-171800-
   Northeast Minnesota

CITY           SKY/WX    TMP DP  RH WIND       PRES   REMARKS
DULUTH         MOSUNNY   68  47  46 VRB7      29.94S
ELY            CLOUDY    54  46  76 NE6       29.98R
HIBBING        PTSUNNY   64  47  53 N9        29.96R
EVELETH        MOSUNNY   59  46  63 N7        29.97R
DULUTH HARBOR  SUNNY     66  52  59 CALM      29.94S
TWO HARBORS    MOSUNNY   54  46  76 E12       29.95R
SILVER BAY     CLOUDY    46  46 100 NE10G17   29.97R
GRAND MARAIS     N/A     45  40  82 E16G23    30.03R
G MARAIS ARPRT CLOUDY    39  36  87 NE9       30.00R FOG
$$
MNZ029>031-032-039>041-046>048-054>057-064-171800-
   West Central Minnesota

CITY           SKY/WX    TMP DP  RH WIND       PRES   REMARKS
FERGUS FALLS   SUNNY     68  52  56 E8        29.95S
WHEATON        SUNNY     64  52  63 NW6       29.97S
MORRIS         SUNNY     70  55  60 CALM      29.93F
ALEXANDRIA     SUNNY     67  55  65 E5        29.96R
ELBOW LAKE     FAIR      67  54  64 E5        29.96R
WADENA         SUNNY     66  54  63 NE5       29.95S
GLENWOOD       SUNNY     70  55  60 N3        29.95F
APPLETON       SUNNY     72  54  53 N3        29.94S
BENSON         SUNNY     66  55  68 SE3       29.95S
ORTONVILLE     SUNNY     66  54  63 N5        29.95S
MADISON        SUNNY     70  57  64 NE6       29.95S
WILLMAR        FAIR      70  54  56 E8        29.96S
$$
MNZ033>034-036-042>043-049>051-058-059-171800-
   Central Minnesota

CITY           SKY/WX    TMP DP  RH WIND       PRES   REMARKS
ST CLOUD       SUNNY     71  52  50 NE6       29.95S
SAUK CENTRE    FAIR      67  55  64 NE3       29.96R
PAYNESVILLE    SUNNY     65  53  64 N3        29.95S
AITKIN         SUNNY     68  54  60 CALM      29.95S
PINE RIVER     SUNNY     64  52  63 CALM      29.99S
BRAINERD       SUNNY     64  52  64 N7        29.96S
STAPLES        SUNNY     64  52  63 NE5       29.96S
LONG PRAIRIE   FAIR      64  54  68 N5        29.96S
LITTLE FALLS   SUNNY     64  52  63 N3        29.96R
LITCHFIELD     SUNNY     70  55  60 CALM      29.95S
BUFFALO        SUNNY     66  53  61 SE3       29.96S
MAPLE LAKE     SUNNY     67  56  67 CALM      29.95F
$$
MNZ037-044-045-052-053-171800-
   East Central Minnesota

CITY           SKY/WX    TMP DP  RH WIND       PRES   REMARKS
PRINCETON      SUNNY     70  54  56 VRB3      29.95S
MORA           SUNNY     64  50  59 CALM      29.97S
CAMBRIDGE      SUNNY     70  54  56 CALM      29.94S
RUSH CITY      SUNNY     66  53  62 CALM      29.95F
MOOSE LAKE     SUNNY     66  50  55 NW6       29.94S
HINCKLEY       FAIR      66  54  63 N3        29.95F
CLOQUET        SUNNY     66  46  48 W3        29.94F
MCGREGOR       SUNNY     64  50  59 CALM      29.96S
$$
MNZ071>073-080-081-089-090-097-098-171800-
   Southwest Minnesota

CITY           SKY/WX    TMP DP  RH WIND       PRES   REMARKS
MONTEVIDEO     SUNNY     72  55  56 NE6       29.95S
GRANITE FALLS  SUNNY     67  55  65 NE5       29.96S
CANBY          MOSUNNY   67  57  69 NE6       29.96S
MARSHALL       SUNNY     68  54  60 E5        29.94S
REDWOOD FALLS  SUNNY     69  55  60 VRB5      29.94S
OLIVIA         SUNNY     70  54  56 E6        29.94S
PIPESTONE      SUNNY     70  55  60 NE7       29.94S
WINDOM         SUNNY     68  54  60 CALM      29.95S
WORTHINGTON    CLOUDY    68  55  64 S3        29.96S
JACKSON        MOSUNNY   68  54  60 CALM      29.96S
TRACY          SUNNY     68  57  68 CALM      29.96S
SLAYTON        SUNNY     68  56  65 CALM      29.96S
$$
MNZ065>067-074>077-082>085-091>093-171800-
   South Central Minnesota

CITY           SKY/WX    TMP DP  RH WIND       PRES   REMARKS
MANKATO        MOSUNNY   68  50  52 CALM      29.96S
NEW ULM        MOSUNNY   66  55  68 E5        29.95S
FAIRMONT       SUNNY     70  52  52 W3        29.96S
GLENCOE        PTSUNNY   68  51  53 CALM      29.95S
FARIBAULT      PTSUNNY   70  48  46 CALM      29.97S
OWATONNA       MOSUNNY   66  50  55 CALM      29.97S
WASECA         PTSUNNY   66  46  48 CALM      29.98S
ALBERT LEA     MOSUNNY   68  52  56 CALM      29.97S
$$
MNZ078>079-086>088-094>096-171800-
   Southeast Minnesota

CITY           SKY/WX    TMP DP  RH WIND       PRES   REMARKS
ROCHESTER      SUNNY     66  50  56 MISG      30.00S
RED WING       SUNNY     68  52  56 CALM      29.95F
STANTON        MOSUNNY   69  51  52 SW3       29.95S
DODGE CENTER   MOSUNNY   66  54  63 SW5       29.98S
WINONA         MOSUNNY   66  54  63 CALM      29.98F
AUSTIN         SUNNY     64  54  68 S7        29.98S
PRESTON        SUNNY     64  55  73 S3        30.00S
$$
ABBREVIATIONS USED IN REMARKS
   TC - TEMPERATURES IN CELSIUS
  WCI - WIND CHILL INDEX
   HX - HEAT INDEX
  VSB - VISIBILITY
$$



USA.gov is the U.S. government's official web portal to all federal, state and local government web resources and services.